This is the latest recevied weather packets stored in our database for station/object HG5PBP-13. If no packets are shown the sender has not sent any weather packets the latest 1 day(s).
| Time | Temp. | Humidity | Pressure | Rain* | Wind** | Luminosity | Snow |
|---|---|---|---|---|---|---|---|
| 1777970955 | 20.56° C | 4% | - | 0 mm | 5.81 m/s, 129° | - | - |
| 1777970655 | 20° C | 4% | - | 0 mm | 1.79 m/s, 163° | - | - |
| 1777970355 | 20° C | 4% | - | 0 mm | 4.47 m/s, 177° | - | - |
| 1777970055 | 19.44° C | 4% | - | 0 mm | 3.58 m/s, 151° | - | - |
| 1777969755 | 19.44° C | 4% | - | 0 mm | 4.47 m/s, 202° | - | - |
| 1777969455 | 19.44° C | 4% | - | 0 mm | 3.58 m/s, 165° | - | - |
| 1777969155 | 19.44° C | 4% | - | 0 mm | 2.24 m/s, 141° | - | - |
| 1777968854 | 18.89° C | 4% | - | 0 mm | 1.79 m/s, 195° | - | - |
| 1777968555 | 18.89° C | 5% | - | 0 mm | 3.13 m/s, 150° | - | - |
| 1777968254 | 18.33° C | 5% | - | 0 mm | 3.58 m/s, 139° | - | - |
| 1777967954 | 18.33° C | 5% | - | 0 mm | 1.34 m/s, 130° | - | - |
| 1777967654 | 17.78° C | 5% | - | 0 mm | 3.58 m/s, 169° | - | - |
| 1777967354 | 17.78° C | 5% | - | 0 mm | 2.24 m/s, 144° | - | - |
| 1777967054 | 17.78° C | 5% | - | 0 mm | 2.68 m/s, 265° | - | - |
| 1777966754 | 17.22° C | 5% | - | 0 mm | 2.24 m/s, 154° | - | - |
| 1777966454 | 17.22° C | 5% | - | 0 mm | 3.58 m/s, 160° | - | - |
| 1777966154 | 17.22° C | 5% | - | 0 mm | 0.45 m/s, 225° | - | - |
| 1777965854 | 17.22° C | 5% | - | 0 mm | 1.79 m/s, 146° | - | - |
| 1777965554 | 16.67° C | 5% | - | 0 mm | 2.24 m/s, 152° | - | - |
| 1777965254 | 16.67° C | 5% | - | 0 mm | 2.24 m/s, 123° | - | - |
| 1777964958 | 16.67° C | 5% | - | 0 mm | 3.58 m/s, 179° | - | - |
| 1777964654 | 16.67° C | 5% | - | 0 mm | 1.79 m/s, 212° | - | - |
| 1777964354 | 16.67° C | 5% | - | 0 mm | 0.89 m/s, 212° | - | - |
| 1777964054 | 16.67° C | 5% | - | 0 mm | 1.79 m/s, 267° | - | - |
| 1777963754 | 16.11° C | 5% | - | 0 mm | 1.34 m/s, 128° | - | - |
* Rain latest hour (hover to see other rain measurements)
** Current wind speed in m/s (hover to see current wind gust speed)